Robinson, IL

12:54 AM CDT on March 25, 2017 (GMT -0500)
Robinson Municipal

Weather History for KRSV - February, 2013

Change the Weather History Date:

Saturday, February 9, 2013

  Actual Average (KLWV) Record (KLWV)
Temperature  
Mean Temperature 38 °F -  
Max Temperature 45 °F 41 °F 68 °F (2009)
Min Temperature 32 °F 25 °F 9 °F (2011)
Degree Days  
Heating Degree Days 26    
Moisture  
Dew Point 27 °F    
Average Humidity 66    
Maximum Humidity 77    
Minimum Humidity 53    
Precipitation  
Precipitation 0.00 in - - ()
Sea Level Pressure  
Sea Level Pressure 30.31 in    
Wind  
Wind Speed 6 mph (ESE)    
Max Wind Speed 13 mph    
Max Gust Speed 16 mph    
Visibility 10 miles    
Events      
Averages and records for this station are not official NWS values.
T = Trace of Precipitation, MM = Missing Value Source: NWS Daily Summary

Daily Weather History Graph

Daily Weather History Graph

Search for Another Location

Airport or City:

Trip Planner

Search our weather history database for the weather conditions in past years. The results will help you decide how hot, cold, wet, or windy it might be!

Date:

Astronomy

Feb. 09, 2013 Rise Set
Actual Time 6:48 AM CST 5:21 PM CST
Civil Twilight 6:21 AM CST 5:49 PM CST
Nautical Twilight 5:49 AM CST 6:20 PM CST
Astronomical Twilight 5:18 AM CST 6:51 PM CST
Moon 6:00 AM CST (2/9) 5:03 PM CST (2/9)
Length of Visible Light 11h 28m
Length of Day
10h 32m
Waning Crescent, 0% of the Moon is Illuminated
Feb 9
Waning Crescent
Feb 10
New
Feb 17
First Quarter
Feb 25
Full
Mar 4
Last Quarter

Hourly Weather History & Observations

Time (CST) Temp. Windchill Dew Point Humidity Pressure Visibility Wind Dir Wind Speed Gust Speed Precip Events Conditions
12:15 AM 34.2 °F 30.0 °F 26.6 °F 74% 30.39 in 10.0 mi NE 4.6 mph - N/A   Overcast
12:55 AM 34.2 °F 31.2 °F 26.4 °F 73% 30.39 in 10.0 mi NE 3.5 mph - N/A   Overcast
1:15 AM 34.2 °F 31.2 °F 26.4 °F 73% 30.39 in 10.0 mi NE 3.5 mph - N/A   Overcast
1:35 AM 34.2 °F 30.0 °F 26.6 °F 74% 30.39 in 10.0 mi ENE 4.6 mph - N/A   Overcast
1:55 AM 34.2 °F 29.0 °F 26.6 °F 74% 30.39 in 10.0 mi ENE 5.8 mph - N/A   Overcast
2:15 AM 34.0 °F 27.2 °F 25.3 °F 71% 30.38 in 10.0 mi East 8.1 mph - N/A   Overcast
2:35 AM 33.8 °F 29.6 °F 26.1 °F 73% 30.38 in 10.0 mi East 4.6 mph - N/A   Overcast
2:55 AM 33.8 °F 29.6 °F 25.5 °F 72% 30.39 in 10.0 mi ESE 4.6 mph - N/A   Overcast
3:15 AM 33.8 °F 28.6 °F 25.5 °F 72% 30.39 in 10.0 mi East 5.8 mph - N/A   Overcast
3:35 AM 33.6 °F 30.6 °F 25.7 °F 73% 30.38 in 10.0 mi East 3.5 mph - N/A   Overcast
3:55 AM 33.3 °F - 25.3 °F 73% 30.39 in 10.0 mi Calm Calm - N/A   Overcast
4:15 AM 33.3 °F 26.4 °F 24.8 °F 71% 30.40 in 10.0 mi East 8.1 mph - N/A   Overcast
4:35 AM 33.3 °F 28.9 °F 25.5 °F 73% 30.40 in 10.0 mi ENE 4.6 mph - N/A   Overcast
4:55 AM 33.3 °F 28.9 °F 25.0 °F 72% 30.41 in 10.0 mi SE 4.6 mph - N/A   Overcast
5:15 AM 33.1 °F 30.0 °F 25.2 °F 73% 30.41 in 10.0 mi East 3.5 mph - N/A   Overcast
5:55 AM 32.9 °F 27.5 °F 25.5 °F 74% 30.41 in 10.0 mi SE 5.8 mph - N/A   Overcast
6:15 AM 32.9 °F 29.8 °F 25.3 °F 74% 30.41 in 10.0 mi East 3.5 mph - N/A   Overcast
6:35 AM 32.9 °F 28.5 °F 24.8 °F 72% 30.41 in 10.0 mi SE 4.6 mph - N/A   Overcast
6:55 AM 32.5 °F - 26.1 °F 77% 30.41 in 10.0 mi Calm Calm - N/A   Overcast
7:15 AM 32.9 °F - 26.4 °F 77% 30.41 in 10.0 mi Calm Calm - N/A   Overcast
7:35 AM 33.4 °F 28.1 °F 25.5 °F 73% 30.40 in 10.0 mi East 5.8 mph - N/A   Overcast
7:55 AM 34.0 °F 28.8 °F 25.7 °F 72% 30.40 in 10.0 mi East 5.8 mph - N/A   Overcast
8:15 AM 34.3 °F 29.2 °F 25.9 °F 71% 30.40 in 10.0 mi ESE 5.8 mph - N/A   Mostly Cloudy
8:35 AM 35.8 °F 28.3 °F 25.2 °F 65% 30.40 in 10.0 mi East 10.4 mph - N/A   Scattered Clouds
8:55 AM 34.9 °F 27.7 °F 25.0 °F 67% 30.40 in 10.0 mi ESE 9.2 mph - N/A   Scattered Clouds
9:15 AM 35.2 °F 27.1 °F 25.7 °F 68% 30.40 in 10.0 mi East 11.5 mph - N/A   Mostly Cloudy
9:35 AM 35.8 °F 27.8 °F 26.1 °F 68% 30.40 in 10.0 mi ESE 11.5 mph - N/A   Mostly Cloudy
9:55 AM 36.1 °F 28.7 °F 26.4 °F 68% 30.41 in 10.0 mi East 10.4 mph 16.1 mph N/A   Scattered Clouds
10:15 AM 36.3 °F 28.9 °F 26.6 °F 68% 30.40 in 10.0 mi ESE 10.4 mph - N/A   Mostly Cloudy
10:35 AM 37.0 °F 29.8 °F 26.6 °F 66% 30.39 in 10.0 mi ESE 10.4 mph - N/A   Scattered Clouds
10:55 AM 37.9 °F 30.9 °F 26.2 °F 63% 30.39 in 10.0 mi ESE 10.4 mph - N/A   Clear
11:15 AM 38.3 °F 31.9 °F 27.0 °F 64% 30.37 in 10.0 mi ESE 9.2 mph - N/A   Clear
11:35 AM 39.9 °F 33.9 °F 27.5 °F 61% 30.37 in 10.0 mi SE 9.2 mph - N/A   Clear
11:55 AM 40.5 °F 35.1 °F 27.7 °F 60% 30.35 in 10.0 mi ESE 8.1 mph - N/A   Clear
12:15 PM 41.0 °F 35.2 °F 27.7 °F 59% 30.34 in 10.0 mi SE 9.2 mph - N/A   Clear
12:35 PM 41.7 °F 34.8 °F 28.4 °F 59% 30.32 in 10.0 mi ESE 12.7 mph - N/A   Clear
12:55 PM 41.7 °F 36.1 °F 28.4 °F 59% 30.31 in 10.0 mi East 9.2 mph - N/A   Clear
1:15 PM 43.0 °F 38.8 °F 29.1 °F 58% 30.30 in 10.0 mi ESE 6.9 mph - N/A   Clear
1:35 PM 43.2 °F 37.9 °F 28.9 °F 57% 30.31 in 10.0 mi ESE 9.2 mph - N/A   Clear
1:55 PM 43.9 °F 37.9 °F 28.9 °F 56% 30.29 in 10.0 mi SE 11.5 mph - N/A   Clear
2:15 PM 44.4 °F 40.0 °F 29.7 °F 56% 30.29 in 10.0 mi ESE 8.1 mph - N/A   Clear
2:35 PM 44.6 °F 39.7 °F 29.3 °F 55% 30.27 in 10.0 mi SSE 9.2 mph - N/A   Clear
2:55 PM 44.6 °F 40.7 °F 28.4 °F 53% 30.27 in 10.0 mi SE 6.9 mph - N/A   Clear
3:15 PM 45.5 °F 41.3 °F 29.8 °F 54% 30.26 in 10.0 mi SE 8.1 mph - N/A   Clear
3:35 PM 44.1 °F 38.6 °F 29.1 °F 56% 30.25 in 10.0 mi East 10.4 mph - N/A   Clear
3:55 PM 45.1 °F 41.4 °F 29.3 °F 54% 30.24 in 10.0 mi ESE 6.9 mph - N/A   Clear
4:15 PM 43.9 °F 39.3 °F 28.9 °F 56% 30.23 in 10.0 mi ESE 8.1 mph - N/A   Clear
4:35 PM 42.8 °F 38.0 °F 28.9 °F 58% 30.23 in 10.0 mi SE 8.1 mph - N/A   Clear
4:55 PM 40.6 °F 36.7 °F 29.3 °F 64% 30.23 in 10.0 mi SE 5.8 mph - N/A   Clear
5:15 PM 39.2 °F 35.9 °F 28.9 °F 67% 30.22 in 10.0 mi East 4.6 mph - N/A   Clear
5:55 PM 39.2 °F 35.9 °F 28.8 °F 66% 30.21 in 10.0 mi ESE 4.6 mph - N/A   Clear
6:15 PM 38.8 °F 35.4 °F 28.8 °F 67% 30.21 in 10.0 mi ESE 4.6 mph - N/A   Clear
6:35 PM 35.8 °F 31.9 °F 28.8 °F 76% 30.22 in 10.0 mi East 4.6 mph - N/A   Clear
6:55 PM 37.6 °F 34.0 °F 29.1 °F 72% 30.21 in 10.0 mi East 4.6 mph - N/A   Clear
7:15 PM 37.8 °F 31.8 °F 30.0 °F 74% 30.20 in 10.0 mi East 8.1 mph - N/A   Clear
7:35 PM 38.7 °F 32.4 °F 30.0 °F 71% 30.19 in 10.0 mi East 9.2 mph - N/A   Clear
7:55 PM 40.1 °F 33.6 °F 29.3 °F 65% 30.19 in 10.0 mi East 10.4 mph - N/A   Clear
8:15 PM 40.1 °F 33.6 °F 28.9 °F 64% 30.19 in 10.0 mi East 10.4 mph - N/A   Clear
8:35 PM 39.9 °F 32.9 °F 28.4 °F 63% 30.19 in 10.0 mi East 11.5 mph - N/A   Clear
8:55 PM 39.6 °F 32.5 °F 28.0 °F 63% 30.18 in 10.0 mi East 11.5 mph - N/A   Clear
9:15 PM 39.4 °F 32.3 °F 28.0 °F 64% 30.18 in 10.0 mi East 11.5 mph - N/A   Clear
9:35 PM 39.2 °F 33.0 °F 28.0 °F 64% 30.16 in 10.0 mi East 9.2 mph - N/A   Clear
9:55 PM 39.2 °F 33.0 °F 27.9 °F 64% 30.15 in 10.0 mi ESE 9.2 mph - N/A   Clear
10:15 PM 39.2 °F 32.5 °F 28.0 °F 64% 30.14 in 10.0 mi ESE 10.4 mph - N/A   Clear
10:35 PM 39.4 °F 31.8 °F 28.0 °F 64% 30.14 in 10.0 mi ESE 12.7 mph - N/A   Clear
10:55 PM 39.6 °F 32.5 °F 27.7 °F 62% 30.14 in 10.0 mi ESE 11.5 mph - N/A   Clear
11:15 PM 40.1 °F 33.6 °F 27.7 °F 61% 30.14 in 10.0 mi ESE 10.4 mph - N/A   Clear
11:35 PM 40.1 °F 33.6 °F 27.9 °F 62% 30.12 in 10.0 mi ESE 10.4 mph - N/A   Scattered Clouds
11:55 PM 39.9 °F 34.5 °F 28.4 °F 63% 30.13 in 10.0 mi ESE 8.1 mph - N/A   Overcast